Tracking 18942 objects as of 18-Jan-2018
HD Live streaming from Space Station
objects crossing your sky now

SUPERBIRD B1

Track SUPERBIRD B1 now!
SUPERBIRD B1 is classified as:


NORAD ID: 21893
Int'l Code: 1992-010A
Perigee: 36,103.2 km
Apogee: 36,174.9 km
Inclination: 12.8 °
Period: 1,453.8 minutes
Semi major axis: 42510 km
RCS: 7.9433 m2 (large)
Launch date: February 26, 1992
Source: Japan (JPN)
Launch site: FRENCH GUIANA (FRGUI)
aabbcc
Your satellite tracking list
Your tracking list is empty




NASA's NSSDC Master Catalog

Two Line Element Set (TLE):
1 21893U 92010A   18017.11404968 +.00000061 +00000-0 +00000-0 0  9992
2 21893 012.7914 030.0535 0008425 031.6787 151.2313 00.99052504093873
Source of the keplerian elements: AFSPC